Regional Weather Roundup
Issued by NWS

Home | Current Version | Previous Version | Text Only | Print | Product List | Glossary Off
Versions: 1 2 3 4 5 6 7 8 9 10 11 12 13 14 15 16 17 18 19 20 21 22 23 24 25 26 27 28 29 30 31 32 33 34 35 36 37 38 39 40 41 42 43 44 45 46 47 48 49 50

000
ASUS43 KMKX 291124
RWRWI

WISCONSIN REGIONAL WEATHER ROUNDUP
NATIONAL WEATHER SERVICE MILWAUKEE/SULLIVAN WI
600 AM CDT FRI MAY 29 2015

NOTE: "FAIR" INDICATES FEW OR NO CLOUDS BELOW 12,000 FEET WITH NO
SIGNIFICANT WEATHER AND/OR OBSTRUCTIONS TO VISIBILITY.

WIZ001-002-006>008-014>016-023>028-291200-
NORTHWEST WISCONSIN

CITY           SKY/WX    TMP DP  RH WIND       PRES   REMARKS
SUPERIOR ARPT  MOCLDY    42  41  96 N3        29.87F
ASHLAND        CLOUDY    61  58  90 S6        29.88F
HAYWARD        LGT RAIN  61  58  90 S9        29.90F
SIREN          CLOUDY    62  60  93 S6        29.88S
CUMBERLAND     RAIN      59  57  94 SE5       29.90S
RICE LAKE      CLOUDY    61  58  90 SE3       29.91S
CHETEK         CLOUDY    61  60  94 E7        29.91S
LADYSMITH      CLOUDY    62  57  83 SE7       29.93F
EAU CLAIRE     CLOUDY    63  59  87 S7        29.90F
MENOMONIE      CLOUDY    63  61  94 CALM      29.90S
NEW RICHMOND   HVY RAIN  61  61  99 S7        29.89R
OSCEOLA        RAIN      62  62 100 SE5       29.91S
$$

WIZ003>005-009-010-017-018-291200-
NORTH CENTRAL WISCONSIN

CITY           SKY/WX    TMP DP  RH WIND       PRES   REMARKS
MANITOWISH WTR LGT RAIN  59  57  93 S3        29.94F
ARBOR VITAE    CLOUDY    62  55  78 S7        29.95S
WOODRUFF       CLOUDY    62  55  78 S7        29.95S
RHINELANDER    CLOUDY    63  54  72 S7        29.97F
EAGLE RIVER    LGT RAIN  62  52  70 S3        29.96S
LAND O LAKES   LGT RAIN  63  53  71 S3        29.96F
PHILLIPS       CLOUDY    61  55  80 S6        29.93S
TOMAHAWK       LGT RAIN  59  55  87 CALM      29.96F
MEDFORD        CLOUDY    59  57  91 S10       29.95S
MERRILL        DRIZZLE   62  58  88 S3        29.97F
$$

WIZ029-030-035-036-043>047-291200-
CENTRAL WISCONSIN

CITY           SKY/WX    TMP DP  RH WIND       PRES   REMARKS
WAUSAU         CLOUDY    63  57  81 S8        29.96F
MOSINEE        CLOUDY    61  59  94 S7        29.99F
MARSHFIELD     CLOUDY    61  58  90 SE7       29.95F
STEVENS POINT  CLOUDY    59  58  94 S3        29.98F
WAUPACA        DRIZZLE   63  61  94 CALM      29.99F
WAUTOMA        CLOUDY    62  62 100 CALM      29.99F
WISC RAPIDS    CLOUDY    61  58  90 SE5       29.98F
CAMP DOUGLAS   NOT AVBL
$$

WIZ011>013-019>022-031-037>040-048>050-291200-
NORTHEAST WISCONSIN

CITY           SKY/WX    TMP DP  RH WIND       PRES   REMARKS
ANTIGO         CLOUDY    59  55  88 S8        29.98F
SHAWANO        CLOUDY    64  56  77 CALM      29.99S
OCONTO         CLOUDY    64  57  77 S8        29.99R
STURGEON BAY   CLOUDY    61  52  72 S14       30.02F
GREEN BAY      CLOUDY    66  56  70 S6        30.00R
MANITOWOC      CLOUDY    59  54  83 S7        30.01F
APPLETON       MOCLDY    64  55  72 MISG      30.00F
CLINTONVILLE   RAIN      63  55  77 SW5       29.98F
OSHKOSH        CLOUDY    65  57  75 S3        29.99F
$$

WIZ032>034-041-042-053>061-291200-
SOUTHWEST WISCONSIN

CITY           SKY/WX    TMP DP  RH WIND       PRES   REMARKS
LA CROSSE      MOCLDY    65  61  87 SE10      29.91F
SPARTA         MOCLDY    60  59  96 CALM      29.95S
VIROQUA        MOCLDY    61  61 100 SE9       29.96S
BOSCOBEL       CLOUDY    63  61  93 CALM      29.96F
PRAIRIE DU CHI CLOUDY    64  61  90 E7        29.94F
PLATTEVILLE    CLOUDY    63  62  97 E8        29.97F
$$

WIZ056-057-062-063-064-067-068-291200-
SOUTH CENTRAL WISCONSIN

CITY           SKY/WX    TMP DP  RH WIND       PRES   REMARKS
REEDSBURG      LGT RAIN  61  60  96 CALM      29.97S
BARABOO/DELLS  LGT RAIN  62  59  91 S6        29.98S
LONE ROCK      LGT RAIN  63  61  93 E7        29.97F
MINERAL POINT  CLOUDY    63  61  94 SE6       29.98F FOG
MADISON        CLOUDY    63  60  90 W5        30.01R THUNDER
MIDDLETON      CLOUDY    63  63  97 W5        30.00S VSB 1
WATERTOWN      CLOUDY   N/A N/A N/A CALM      30.00S
MONROE         CLOUDY    61  59  94 CALM      30.00R
JANESVILLE     CLOUDY    64  57  77 CALM      29.99S
$$

WIZ051-052-058>065-066-070>072-291200-
SOUTHEAST WISCONSIN

CITY           SKY/WX    TMP DP  RH WIND       PRES   REMARKS
MILWAUKEE      MOCLDY    63  55  75 S8        30.01S
WAUKESHA       PTCLDY    63  55  77 S5        30.02S
MILWAUKEE/TIMM MOCLDY    61  54  77 S5        30.02R
RACINE         MOCLDY    61  55  81 S6        30.03S
BURLINGTON     PTCLDY    56  55  95 CALM      30.02R
KENOSHA        MOCLDY    64  57  78 S7        30.02S
FOND DU LAC    CLOUDY    66  57  72 SW3       30.00S
SHEBOYGAN      CLOUDY    59  53  80 S3        30.00F
WEST BEND      MOCLDY    61  54  77 CALM      30.02R
JUNEAU         CLOUDY    62  57  83 CALM      30.02S
$$

LSZ147-162-291200-
LAKE SUPERIOR

STATION/POSITION TIME  TEMP    WIND        PRES    WAVE
                       AIR SEA DIR/SP/G            HT/PER
                 (UTC) (F)     (DEG/KT/KT) (MB)    (FT/S)
W MID LAKE BUOY  1050   40 37  180/  4/  4   N/A     1/ 4
DEVILS ISLAND    1100   43     170/  2/  2   N/A
PORT WING        1040   43     120/  2/  4   N/A
SAXON HARBOR     0900   65     200/  2/  7   N/A
$$

LMZ867-665-643>646-291200-
LAKE MICHIGAN

STATION/POSITION TIME  TEMP    WIND        PRES    WAVE
                       AIR SEA DIR/SP/G            HT/PER
                 (UTC) (F)     (DEG/KT/KT) (MB)    (FT/S)
N MID LAKE BUOY  1050   45 36  170/  6/  8   N/A     1
NORTHPORT PIER   1000   58     160/  6/ 11   N/A
SISTER BAY       1003   58     180/ 13/ 16   N/A
ALGOMA LAKESHORE 1038          160/  2/  3   N/A
KEWAUNEE LAKESHO 1000   51     170/  5/  7   N/A
SHEBOYGAN LAKESH 1100   51     180/ 10/ 11   N/A
PORT WASHINGTON  1040   51      80/  1/  2   N/A
ATWATER BUOY     1000   53     160/  8/ 10   N/A
MILWAUKEE LAKESH 1000   53     150/  9/ 10   N/A
S MID LAKE BUOY  1050   47 38  160/ 10/ 12   N/A     1
KENOSHA   LAKESH 1100   56     160/  6/  7   N/A
$$

TC  - TEMPERATURE IN CELSIUS
VSB - VISIBILITY IN STATUTE MILES
WCI - WIND CHILL INDEX
HX  - HEAT INDEX




USA.gov is the U.S. government's official web portal to all federal, state and local government web resources and services.